Weather History for Bowling Green, KY

Change the Weather History Date:

Thursday, March 29, 2012

  Actual Average Record
Temperature  
Mean Temperature 69 °F 52 °F  
Max Temperature 81 °F 64 °F 89 °F (1910)
Min Temperature 56 °F 40 °F 15 °F (1887)
Degree Days  
Heating Degree Days 0 13  
Month to date heating degree days 172 495  
Since 1 July heating degree days 2782 3693  
Cooling Degree Days 4 0  
Month to date cooling degree days 54 0  
Year to date cooling degree days 54 0  
Growing Degree Days 18 (Base 50)    
Moisture  
Dew Point 54 °F    
Average Humidity 66    
Maximum Humidity 93    
Minimum Humidity 39    
Precipitation  
Precipitation 0.00 in 0.16 in 4.03 in (1976)
Month to date precipitation 3.97 4.11  
Year to date precipitation 10.52 11.68  
Snow  
Snow 0.00 in 0.00 in 2.00 in (1894)
Month to date snowfall 0.0 1.0  
Since 1 July snowfall 1.4 8.8  
Snow Depth 0.00 in    
Sea Level Pressure  
Sea Level Pressure 29.94 in    
Wind  
Wind Speed 3 mph (East)    
Max Wind Speed 13 mph    
Max Gust Speed 16 mph    
Visibility 9 miles    
Events      
T = Trace of Precipitation, MM = Missing Value Source: NWS Daily Summary

Daily Weather History Graph

Daily Weather History Graph

Search for Another Location

Airport:

Trip Planner

Search our weather history database for the weather conditions in past years. The results will help you decide how hot, cold, wet, or windy it might be!

Date:

Astronomy

Mar. 29, 2012 Rise Set
Actual Time 6:35 AM CDT 7:05 PM CDT
Civil Twilight 6:09 AM CDT 7:32 PM CDT
Nautical Twilight 5:38 AM CDT 8:02 PM CDT
Astronomical Twilight 5:07 AM CDT 8:34 PM CDT
Moon 10:50 AM CDT (3/29) 12:49 AM CDT (3/29)
Length of Visible Light 13h 22m
Length of Day
12h 30m
Waxing Crescent, 39% of the Moon is Illuminated
Mar 29
Waxing Crescent
Mar 30
First Quarter
Apr 6
Full
Apr 13
Last Quarter
Apr 21
New

Hourly Weather History & Observations

Time (CDT) Temp. Heat Index Dew Point Humidity Pressure Visibility Wind Dir Wind Speed Gust Speed Precip Events Conditions
12:53 AM 64.9 °F - 55.0 °F 70% 29.97 in 10.0 mi SW 3.5 mph - N/A   Overcast
1:53 AM 63.0 °F - 55.9 °F 78% 29.96 in 10.0 mi Calm Calm - N/A   Mostly Cloudy
2:53 AM 61.0 °F - 55.0 °F 81% 29.96 in 10.0 mi Calm Calm - N/A   Mostly Cloudy
3:53 AM 62.1 °F - 55.0 °F 78% 29.96 in 9.0 mi Calm Calm - N/A   Scattered Clouds
4:53 AM 61.0 °F - 55.0 °F 81% 29.97 in 9.0 mi Calm Calm - N/A   Clear
5:53 AM 57.9 °F - 55.0 °F 90% 29.99 in 7.0 mi NNE 3.5 mph - N/A   Clear
6:53 AM 57.0 °F - 54.0 °F 89% 30.00 in 5.0 mi Calm Calm - N/A   Clear
7:53 AM 61.0 °F - 55.0 °F 81% 30.01 in 5.0 mi Calm Calm - N/A   Haze
8:53 AM 66.0 °F - 57.9 °F 75% 30.01 in 6.0 mi NE 3.5 mph - N/A   Haze
2:53 PM 78.1 °F - 59.0 °F 52% 29.92 in 10.0 mi East 8.1 mph - N/A   Mostly Cloudy
3:53 PM 79.0 °F - 53.1 °F 40% 29.90 in 10.0 mi SW 5.8 mph - N/A   Mostly Cloudy
4:53 PM 80.1 °F 79.9 °F 53.1 °F 39% 29.89 in 10.0 mi SW 8.1 mph - N/A   Mostly Cloudy
5:53 PM 79.0 °F - 53.1 °F 40% 29.89 in 10.0 mi WSW 4.6 mph - N/A   Clear
6:53 PM 77.0 °F - 51.1 °F 40% 29.90 in 10.0 mi SW 4.6 mph - N/A   Clear
7:53 PM 69.1 °F - 53.1 °F 57% 29.90 in 10.0 mi Calm Calm - N/A   Clear
8:53 PM 64.9 °F - 54.0 °F 68% 29.92 in 10.0 mi NE 5.8 mph - N/A   Clear
9:53 PM 64.0 °F - 51.1 °F 63% 29.93 in 10.0 mi East 5.8 mph - N/A   Clear
10:53 PM 64.0 °F - 51.1 °F 63% 29.92 in 10.0 mi ENE 3.5 mph - N/A   Mostly Cloudy
11:53 PM 63.0 °F - 51.1 °F 65% 29.91 in 10.0 mi Calm Calm - N/A   Scattered Clouds